Weather History for Erie, PA

Change the Weather History Date:

Wednesday, February 1, 2012

  Actual Average Record
Temperature  
Mean Temperature 47 °F 27 °F  
Max Temperature 55 °F 34 °F 58 °F (2002)
Min Temperature 38 °F 20 °F -5 °F (1971)
Degree Days  
Heating Degree Days 18 38  
Month to date heating degree days 18 38  
Since 1 July heating degree days 2826 3376  
Cooling Degree Days 0 0  
Month to date cooling degree days 0 0  
Year to date cooling degree days 0 0  
Moisture  
Dew Point 40 °F    
Average Humidity 76    
Maximum Humidity 86    
Minimum Humidity 66    
Precipitation  
Precipitation 0.11 in 0.08 in 0.89 in (2002)
Month to date precipitation 0.11 0.08  
Year to date precipitation 4.62 3.03  
Snow  
Snow 0.00 in 0.80 in - ()
Month to date snowfall 0.0 0.8  
Since 1 July snowfall 36.5 66.6  
Snow Depth 0.00 in    
Sea Level Pressure  
Sea Level Pressure 29.98 in    
Wind  
Wind Speed 10 mph (WSW)    
Max Wind Speed 26 mph    
Max Gust Speed 36 mph    
Visibility 8 miles    
Events Rain    
T = Trace of Precipitation, MM = Missing Value Source: NWS Daily Summary

Daily Weather History Graph

Daily Weather History Graph

Search for Another Location

Airport:

Trip Planner

Search our weather history database for the weather conditions in past years. The results will help you decide how hot, cold, wet, or windy it might be!

Date:

Astronomy

Feb. 01, 2012 Rise Set
Actual Time 7:34 AM EST 5:34 PM EST
Civil Twilight 7:04 AM EST 6:04 PM EST
Nautical Twilight 6:31 AM EST 6:38 PM EST
Astronomical Twilight 5:58 AM EST 7:10 PM EST
Moon 12:00 PM EST (2/1) 2:19 AM EST (2/1)
Length of Visible Light 10h 59m
Length of Day
10h 00m
Waxing Gibbous, 64% of the Moon is Illuminated
Feb 1
Waxing Gibbous
Feb 7
Full
Feb 14
Last Quarter
Feb 21
New
Feb 29
First Quarter

Hourly Weather History & Observations

Time (EST) Temp. Windchill Dew Point Humidity Pressure Visibility Wind Dir Wind Speed Gust Speed Precip Events Conditions
12:51 AM 53.1 °F - 44.1 °F 71% 29.87 in 10.0 mi SSW 17.3 mph 27.6 mph N/A   Overcast
1:51 AM 53.1 °F - 43.0 °F 69% 29.84 in 10.0 mi SSW 25.3 mph 33.4 mph N/A   Overcast
2:51 AM 50.0 °F - 44.1 °F 80% 29.86 in 10.0 mi SSW 17.3 mph - 0.05 in   Overcast
2:59 AM 50.0 °F - 44.6 °F 82% 29.85 in 10.0 mi SSW 18.4 mph 24.2 mph 0.00 in Rain Light Rain
3:51 AM 50.0 °F - 44.1 °F 80% 29.85 in 8.0 mi SSW 16.1 mph - 0.02 in Rain Light Rain
4:51 AM 48.9 °F - 45.0 °F 86% 29.86 in 9.0 mi SW 13.8 mph 21.9 mph 0.03 in Rain Light Rain
5:04 AM 48.2 °F - 44.6 °F 87% 29.85 in 8.0 mi SSW 12.7 mph - 0.01 in Rain Light Rain
5:51 AM 50.0 °F - 46.0 °F 86% 29.86 in 10.0 mi SW 11.5 mph - 0.01 in Rain Light Rain
6:08 AM 50.0 °F - 46.4 °F 87% 29.86 in 10.0 mi SW 16.1 mph 20.7 mph 0.00 in   Overcast
6:51 AM 50.0 °F - 46.0 °F 86% 29.88 in 10.0 mi SW 10.4 mph 19.6 mph 0.00 in   Overcast
7:34 AM 50.0 °F - 46.4 °F 87% 29.90 in 10.0 mi SW 9.2 mph - N/A   Overcast
7:51 AM 50.0 °F - 45.0 °F 83% 29.91 in 10.0 mi SW 11.5 mph - N/A   Overcast
8:51 AM 51.1 °F - 46.0 °F 83% 29.94 in 10.0 mi West 19.6 mph 31.1 mph N/A   Overcast
9:26 AM 46.4 °F 39.5 °F 42.8 °F 87% 29.95 in 7.0 mi WSW 17.3 mph 29.9 mph N/A   Mostly Cloudy
9:38 AM 46.4 °F 39.5 °F 42.8 °F 87% 29.95 in 7.0 mi West 17.3 mph 26.5 mph N/A   Mostly Cloudy
9:51 AM 46.0 °F 39.6 °F 43.0 °F 89% 29.96 in 6.0 mi West 15.0 mph 24.2 mph N/A   Mostly Cloudy
10:05 AM 46.4 °F 39.8 °F 42.8 °F 87% 29.96 in 6.0 mi WSW 16.1 mph 27.6 mph N/A   Mostly Cloudy
10:12 AM 44.6 °F 38.4 °F 42.8 °F 93% 29.97 in 5.0 mi WSW 12.7 mph 27.6 mph N/A   Mostly Cloudy
10:51 AM 44.1 °F 38.1 °F 39.9 °F 85% 30.00 in 6.0 mi West 11.5 mph 19.6 mph N/A   Mostly Cloudy
11:02 AM 42.8 °F 36.6 °F 39.2 °F 87% 29.99 in 5.0 mi West 11.5 mph - N/A   Mostly Cloudy
11:51 AM 42.1 °F 35.7 °F 37.0 °F 82% 30.02 in 6.0 mi West 11.5 mph - N/A   Haze
12:51 PM 42.1 °F 35.2 °F 36.0 °F 79% 30.03 in 7.0 mi West 12.7 mph 19.6 mph N/A   Overcast
1:16 PM 42.8 °F 36.6 °F 35.6 °F 76% 30.02 in 7.0 mi WSW 11.5 mph 20.7 mph N/A   Overcast
1:51 PM 43.0 °F 36.0 °F 36.0 °F 76% 30.04 in 7.0 mi West 13.8 mph 18.4 mph N/A   Overcast
2:51 PM 42.1 °F 37.1 °F 35.1 °F 76% 30.06 in 8.0 mi West 8.1 mph 18.4 mph N/A   Overcast
3:51 PM 42.1 °F 37.1 °F 34.0 °F 73% 30.09 in 9.0 mi West 8.1 mph - N/A   Overcast
3:58 PM 41.0 °F 34.7 °F 33.8 °F 76% 30.07 in 9.0 mi West 10.4 mph 16.1 mph N/A   Overcast
4:51 PM 39.9 °F 35.1 °F 34.0 °F 79% 30.10 in 7.0 mi West 6.9 mph - N/A   Overcast
5:51 PM 39.0 °F 36.8 °F 33.1 °F 79% 30.10 in 9.0 mi West 3.5 mph - N/A   Overcast
6:51 PM 39.0 °F - 33.1 °F 79% 30.11 in 10.0 mi Calm Calm - N/A   Overcast
7:51 PM 39.0 °F - 33.1 °F 79% 30.12 in 10.0 mi Calm Calm - N/A   Overcast
8:51 PM 39.0 °F - 32.0 °F 76% 30.13 in 10.0 mi Calm Calm - N/A   Overcast
9:51 PM 37.9 °F 35.5 °F 32.0 °F 79% 30.12 in 10.0 mi NNE 3.5 mph - N/A   Overcast
10:51 PM 37.9 °F 33.5 °F 30.9 °F 76% 30.10 in 10.0 mi ENE 5.8 mph - N/A   Overcast
11:51 PM 37.9 °F 32.7 °F 30.0 °F 73% 30.11 in 10.0 mi NE 6.9 mph - N/A   Overcast